www.pogodaiklimat.ru

Погода и климат >> Архив погоды >> Грузия >> Зугдиди


ПОГОДА в Зугдиди

АРХИВ ПОГОДЫ в Зугдиди

Время (UTC), дата Ветер
(напр.,м/с)
 
Видим.   Явления Облачность Т
(С)
Тd
(С)
f
(%)
Тe
(С)
Тes
(С)
Комфортность P
(гПа)
Po
(гПа)
Тmin
(С)
Tmax
(С)
R
(мм)
R24
(мм)
S
(см)
06 17.07 ЮВ 3 н/о н/о +23.3 +18.8 76 +30 +30 очень
душно
1012.9 994.1 +15.9
09 17.07 СЗ 4 н/о н/о +26.1 +17.9 61 +31 +31 очень
душно
1011.7 993.1
12 17.07 З 4 н/о н/о +27.2 +17.9 57 +32 +32 очень
душно
1010.6 992.1
15 17.07 З 6 н/о н/о +25.2 +18.6 67 +30 +30 душно 1010.5 991.9 +27.7
18 17.07 З 2 н/о н/о +22.6 +19.0 80 +28 +28 душно 1011.0 992.2 +27.7
21 17.07 штиль 0 н/о н/о +21.2 +19.2 88 +26 +26 душно 1011.0 992.1
00 18.07 СВ 1 н/о н/о +21.1 +19.4 90 +26 +26 душно 1010.2 991.3
03 18.07 штиль 0 н/о н/о +20.3 +19.3 94 +24 +24 комфорт 1010.7 991.8
06 18.07 Ю 3 н/о н/о +24.3 +19.4 74 +29 +29 душно 1010.6 991.9 +19.9
09 18.07 СЗ 4 н/о н/о +27.3 +21.0 69 +34 +34 очень
душно
1009.8 991.4
12 18.07 З 6 н/о н/о +24.2 +20.9 82 +30 +30 очень
душно
1011.3 992.6
15 18.07 ЮЗ 3 н/о н/о +23.3 +21.3 89 +31 +31 очень
душно
1013.5 994.7 +28.3
18 18.07 штиль 0 н/о н/о +21.8 +20.5 92 +28 +28 душно 1015.6 996.7 +28.3 2
21 18.07 ЮВ 3 н/о н/о +20.6 +19.6 94 +25 +25 комфорт 1016.7 997.7 1
00 19.07 В 2 н/о н/о +20.5 +19.8 96 +25 +25 комфорт 1016.6 997.6 1
03 19.07 штиль 0 н/о н/о +20.4 +20.5 100 +24 +24 комфорт 1017.3 998.3
06 19.07 В 4 н/о н/о +20.7 +20.4 98 +26 +26 душно 1017.7 998.7 +20.0 6
09 19.07 ЮВ 4 н/о н/о +22.6 +20.9 90 +30 +30 очень
душно
1018.5 999.6 0.6
12 19.07 ЮЗ 1 н/о н/о +23.0 +22.0 94 +31 +31 очень
душно
1018.9 1000.0 1
15 19.07 Ю 2 н/о н/о +24.1 +20.8 82 +30 +30 очень
душно
1019.3 1000.4 +24.8
18 19.07 ЮВ 3 н/о н/о +21.8 +21.1 96 +28 +28 душно 1020.9 1001.9 +24.8 2
21 19.07 В 2 н/о н/о +21.5 +21.7 100 +28 +28 очень
душно
1021.2 1002.2
00 20.07 ЮВ 2 н/о н/о +21.5 +21.6 100 +28 +28 очень
душно
1021.1 1002.0
03 20.07 В 1 н/о н/о +21.3 +21.4 100 +27 +27 душно 1021.4 1002.3
06 20.07 ЮВ 1 н/о н/о +24.1 +21.0 83 +30 +30 очень
душно
1021.4 1002.5 +21.0
09 20.07 З 4 н/о н/о +24.8 +21.6 82 +32 +32 очень
душно
1020.8 1001.9
12 20.07 З 4 н/о н/о +25.5 +21.9 81 +33 +33 очень
душно
1020.1 1001.3
15 20.07 З 1 н/о н/о +23.8 +21.6 87 +30 +30 очень
душно
1020.0 1001.1 +26.9
18 20.07 С 1 н/о н/о +21.6 +21.8 100 +28 +28 очень
душно
1020.8 1001.7 +26.9 0.6
21 20.07 ЮВ 2 н/о н/о +21.3 +21.6 100 +27 +27 душно 1020.8 1001.7 0.1
00 21.07 ЮВ 2 н/о н/о +21.0 +21.2 100 +27 +27 душно 1020.1 1001.0 0.1
03 21.07 ЮВ 2 н/о н/о +20.7 +21.0 100 +26 +26 душно 1019.9 1000.8
06 21.07 ЮВ 2 н/о н/о +21.2 +21.1 99 +27 +27 душно 1019.7 1000.6 +20.6 0.3
09 21.07 ЮВ 3 н/о н/о +23.5 +21.6 89 +30 +30 очень
душно
1018.8 999.9
12 21.07 Ю 2 н/о н/о +23.0 +21.8 93 +31 +31 очень
душно
1018.9 1000.0
15 21.07 ЮВ 4 н/о н/о +22.5 +22.5 100 +30 +30 очень
душно
1018.7 999.8 +25.2
18 21.07 Ю 3 н/о н/о +21.3 +21.7 100 +27 +27 душно 1019.8 1000.7 +25.2 3
21 21.07 ЮВ 2 н/о н/о +21.2 +21.5 100 +27 +27 душно 1019.8 1000.8 3
00 22.07 ЮВ 4 н/о н/о +20.8 +21.1 100 +26 +26 душно 1019.4 1000.3 5
03 22.07 ЮВ 3 н/о н/о +20.1 +20.3 100 +24 +24 комфорт 1019.1 1000.0
06 22.07 В 2 н/о н/о +20.8 +20.2 96 +26 +26 душно 1018.7 999.6 +19.9 7
09 22.07 В 3 н/о н/о +22.3 +19.9 86 +28 +28 душно 1018.0 999.1
12 22.07 СВ 2 н/о н/о +22.1 +21.8 98 +29 +29 очень
душно
1018.2 999.2
15 22.07 СВ 2 н/о н/о +22.7 +20.6 88 +30 +30 очень
душно
1017.9 999.0 +23.3
18 22.07 СВ 2 н/о н/о +21.6 +20.9 96 +27 +27 душно 1018.4 999.4 +23.3
21 22.07 В 2 н/о н/о +20.6 +20.8 100 +26 +26 душно 1018.1 999.0 0.5
00 23.07 В 4 н/о н/о +20.4 +20.6 100 +25 +25 комфорт 1017.2 998.2 3
03 23.07 В 2 н/о н/о +20.6 +20.8 100 +26 +26 душно 1016.7 997.7
06 23.07 В 3 н/о н/о +20.9 +21.2 100 +27 +27 душно 1016.6 997.6 +20.3 8
09 23.07 ЮВ 3 н/о н/о +21.4 +21.6 100 +27 +27 душно 1016.2 997.3 1
12 23.07 ЮВ 3 н/о н/о +21.6 +21.8 100 +28 +28 очень
душно
1015.8 996.8 1
15 23.07 ЮВ 2 н/о н/о +21.8 +21.8 100 +28 +28 душно 1015.1 996.2 +22.7
18 23.07 С 1 н/о н/о +21.3 +21.5 100 +27 +27 душно 1015.5 996.5 +21.9 4
00 24.07 штиль 0 н/о н/о +20.7 +20.9 100 +25 +25 комфорт 1014.4 995.5 3

 

Местоположение метеостанции Зугдиди (Грузия): широта 42.50 долгота 41.88 высота над уровнем моря 117 м.

В архиве по умолчанию представлена погода в Зугдиди за последнюю неделю. Архивные данные за месяц целиком и за предыдущие месяцы, начиная с января 2011 года, Вы можете получить, выбрав интересующий диапазон дат из раскрывающегося списка и нажав кнопку "Ввод!".


*Определитесь, кто Вы:
робот инопланетянин человек

Внимание! Время в таблицах - всемирное. Для получения местного времени необходимо прибавить поправку, которая равна 4 ч.

Смотрите также архив погоды в соседних городах и на ближайших метеорологических станциях:

Погода в Кутаиси (Грузия) (67 км)
Погода на Клухорском Перевале (Карачаево-Черкессия, Россия) (68 км)
Погода в Чегете (Кабардино-Балкария, Россия) (96 км)
Погода в Терсколе (Кабардино-Балкария, Россия) (98 км)
Погода на Леднике Гарабаши (Карачаево-Черкессия, Россия) (99 км)
Погода в Домбае (Карачаево-Черкессия, Россия) (99 км)
Погода в Батуми (Грузия) (101 км)
Погода в Сакаре (Грузия) (103 км)
Погода в Амролаури (Грузия) (104 км)
Погода в Теберде (Карачаево-Черкессия, Россия) (106 км)

Пояснения к столбцам:

Ветер - указаны скорость ветра в м/с - средняя за 10 мин, порывы в срок и между сроками (в фигурных скобках) и направление, откуда дует ветер: С - северный, СВ - северо-восточный, В - восточный, ЮВ - юго-восточный, Ю - южный, ЮЗ - юго-западный, З - западный, СЗ - северо-западный.
Видимость - горизонтальная дальность видимости в метрах или километрах. При видимости от 1 до 10 км при отсутствии осадков обычно наблюдается дымка, при ухудшении видимости до 1 км и менее - туман. В сухую погоду видимость может ухудшаться дымом, пылью или мглою.
Явления - указаны атмосферные явления, наблюдавшиеся в срок или в последний час перед сроком; фигурными скобками обозначены явления, наблюдавшиеся между сроками (за 1-3 часа до срока); квадратными скобками обозначены град или гололедные отложения с указанием их диаметра в мм.
Облачность - указаны через наклонную черту общая и нижняя облачность в баллах и высота нижней границы облаков в метрах; квадратными скобками обозначены формы облаков: Ci - перистые, Cs - перисто-слоистые, Cc - перисто-кучевые, Ac - высококучевые, As - высокослоистые, Sc - слоисто-кучевые, Ns - слоисто-дождевые, Cu - кучевые, Cb - кучево-дождевые. Подробнее классификацию облаков см. в Атласе облаков (PDF).
T - Температура воздуха - температура, измеренная на высоте 2 м над землей.
Td - Температура точки росы - температура, при понижении до которой содержащийся в воздухе водяной пар достигнет насыщения.
f - Относительная влажность воздуха - влажноcть воздуха, измеренная на высоте 2 м над землей.
Te - Эффективная температура - температура, которую ощущает одетый по сезону человек в тени. Характеристика душности погоды. При расчете учитывается влияние влажности воздуха и скорости ветра на теплоощущения человека.
Tes - Эффективная температура на солнце - температура, которую ощущает человек, с поправкой на солнечный нагрев. Характеристика знойности погоды. Зависит от высоты солнца над горизонтом, облачности и скорости ветра. Ночью, в пасмурную погоду, а также при ветре 12 м/с и более поправка равна нулю.
P - Атмосферное давление - приведенное к уровню моря атмосферное давление.
Po - Атмосферное давление - измеренное на уровне метеостанции атмосферное давление.
Tmin - Минимальная температура - минимум температуры воздуха на высоте 2 м над землей.
Tmax - Максимальная температура - максимум температуры воздуха на высоте 2 м над землей.
R - Количество осадков - Количество выпавших осадков за период времени, мм. При наведении курсора мыши на число - период времени, за который выпало указанное количество осадков.
R24 - Количество осадков - Количество выпавших осадков за 24 часа, мм.
S - Снежный покров - Высота снежного покрова, см. При наведении курсора мыши на число - состояние снежного покрова и степень покрытия местности в баллах.